PBD6544 USSS-UUEE

Flight info

Callsign PBD6544
Flight time N/A
Altitude 36000
Route LUNAG6K LUNAG M864 AGNOK T796 ORTIM L158 DIMGI
Aircraft B738/M-SDE2E3FGHIRWXY/LB1

Departure

Time 2026-05-06 15:13
Airport Koltsovo Airport (USSS)

Arrival

Time N/A
Airport Sheremetyevo International Airport (UUEE)
Time Latitude Longitude Altitude Speed Heading
2026-05-06 14:46 56.74934 60.79938 773 ft 0 kts
2026-05-06 15:02 56.74912 60.79938 773 ft 4 kts
2026-05-06 15:02 56.74886 60.79937 773 ft 4 kts 10°
2026-05-06 15:02 56.74863 60.79919 773 ft 4 kts 53°
2026-05-06 15:03 56.74853 60.79876 773 ft 4 kts 86°
2026-05-06 15:03 56.74853 60.79838 773 ft 4 kts 89°
2026-05-06 15:03 56.74853 60.79818 773 ft 0 kts 89°
2026-05-06 15:06 56.74853 60.79826 773 ft 0 kts 89°
2026-05-06 15:06 56.74853 60.79833 773 ft 2 kts 89°
2026-05-06 15:06 56.74853 60.79881 773 ft 6 kts 89°
2026-05-06 15:06 56.74854 60.79981 773 ft 10 kts 89°
2026-05-06 15:07 56.74853 60.80119 774 ft 11 kts 90°
2026-05-06 15:07 56.74854 60.80258 774 ft 11 kts 90°
2026-05-06 15:07 56.74854 60.80393 774 ft 10 kts 90°
2026-05-06 15:07 56.74854 60.80524 774 ft 10 kts 90°
2026-05-06 15:08 56.74854 60.80651 774 ft 10 kts 90°
2026-05-06 15:08 56.74854 60.80775 774 ft 10 kts 90°
2026-05-06 15:08 56.74854 60.80897 774 ft 10 kts 89°
2026-05-06 15:08 56.74860 60.81044 774 ft 14 kts 76°
2026-05-06 15:09 56.74863 60.81220 774 ft 14 kts 90°
2026-05-06 15:09 56.74863 60.81391 774 ft 13 kts 90°
2026-05-06 15:09 56.74863 60.81555 774 ft 13 kts 90°
2026-05-06 15:09 56.74862 60.81715 774 ft 12 kts 90°
2026-05-06 15:10 56.74856 60.81868 774 ft 12 kts 110°
2026-05-06 15:10 56.74814 60.82021 774 ft 15 kts 117°
2026-05-06 15:10 56.74761 60.82180 774 ft 14 kts 140°
2026-05-06 15:10 56.74667 60.82201 774 ft 13 kts 179°
2026-05-06 15:11 56.74575 60.82201 774 ft 13 kts 180°
2026-05-06 15:11 56.74485 60.82201 774 ft 13 kts 180°
2026-05-06 15:11 56.74397 60.82196 774 ft 13 kts 185°
2026-05-06 15:11 56.74303 60.82181 774 ft 14 kts 185°
2026-05-06 15:12 56.74199 60.82165 774 ft 16 kts 185°
2026-05-06 15:12 56.74098 60.82153 774 ft 8 kts 183°
2026-05-06 15:12 56.74065 60.82084 774 ft 9 kts 273°
2026-05-06 15:12 56.74072 60.81916 774 ft 24 kts 274°
2026-05-06 15:13 56.74101 60.81165 774 ft 95 kts 274°
2026-05-06 15:13 56.74164 60.79600 774 ft 154 kts 273°
2026-05-06 15:13 56.74248 60.77495 1231 ft 169 kts 272°
2026-05-06 15:13 56.74295 60.75336 2007 ft 174 kts 269°
2026-05-06 15:14 56.74321 60.72972 2405 ft 202 kts 268°
2026-05-06 15:14 56.74345 60.70317 2820 ft 213 kts 268°
2026-05-06 15:14 56.74373 60.67597 3416 ft 217 kts 267°
2026-05-06 15:14 56.74404 60.64816 4137 ft 219 kts 268°
2026-05-06 15:15 56.74433 60.62030 4819 ft 228 kts 268°
2026-05-06 15:15 56.74464 60.58971 5080 ft 253 kts 268°
2026-05-06 15:15 56.74497 60.55710 5716 ft 261 kts 269°
2026-05-06 15:15 56.74694 60.52384 6466 ft 266 kts 278°
2026-05-06 15:16 56.75062 60.49067 7264 ft 269 kts 280°
2026-05-06 15:16 56.75448 60.45755 7995 ft 272 kts 280°
2026-05-06 15:16 56.75838 60.42341 8713 ft 277 kts 280°
2026-05-06 15:16 56.76224 60.38882 9435 ft 280 kts 280°
2026-05-06 15:17 56.76605 60.35386 10141 ft 284 kts 279°
2026-05-06 15:17 56.76997 60.31729 10393 ft 306 kts 279°
2026-05-06 15:17 56.77417 60.27773 10590 ft 328 kts 279°
2026-05-06 15:17 56.77862 60.23562 10749 ft 348 kts 279°
2026-05-06 15:18 56.78329 60.19110 10937 ft 366 kts 279°
2026-05-06 15:18 56.78809 60.14492 11423 ft 373 kts 279°
2026-05-06 15:18 56.79198 60.09805 12072 ft 375 kts 276°
2026-05-06 15:18 56.79486 60.05072 12747 ft 376 kts 275°
2026-05-06 15:19 56.79748 60.00304 13361 ft 380 kts 275°
2026-05-06 15:19 56.80014 59.95476 13971 ft 384 kts 275°
2026-05-06 15:19 56.80290 59.90599 14585 ft 388 kts 275°
2026-05-06 15:19 56.80574 59.85680 15210 ft 392 kts 276°
2026-05-06 15:20 56.80864 59.80721 15854 ft 394 kts 276°
2026-05-06 15:20 56.81157 59.75718 16468 ft 398 kts 276°
2026-05-06 15:20 56.81453 59.70664 17005 ft 402 kts 276°
2026-05-06 15:20 56.81750 59.65563 17612 ft 405 kts 276°
2026-05-06 15:21 56.82047 59.60433 18192 ft 408 kts 276°
2026-05-06 15:21 56.82340 59.55337 18722 ft 411 kts 276°
2026-05-06 15:21 56.82637 59.50125 19238 ft 415 kts 276°
2026-05-06 15:21 56.82932 59.44861 19764 ft 418 kts 276°
2026-05-06 15:22 56.83224 59.39572 20303 ft 420 kts 276°
2026-05-06 15:22 56.83516 59.34243 20791 ft 423 kts 276°
2026-05-06 15:22 56.83807 59.28882 21241 ft 426 kts 276°
2026-05-06 15:22 56.84099 59.23474 21674 ft 429 kts 276°
2026-05-06 15:23 56.84392 59.18018 22111 ft 432 kts 276°
2026-05-06 15:23 56.84683 59.12541 22542 ft 435 kts 276°
2026-05-06 15:23 56.84973 59.07028 22963 ft 437 kts 276°
2026-05-06 15:23 56.85193 59.01472 23373 ft 439 kts 274°
2026-05-06 15:24 56.85314 58.95885 23778 ft 441 kts 272°
2026-05-06 15:24 56.85395 58.90260 24148 ft 444 kts 272°
2026-05-06 15:24 56.85466 58.84589 24507 ft 447 kts 272°
2026-05-06 15:24 56.85540 58.78900 24873 ft 449 kts 272°
2026-05-06 15:25 56.85620 58.73186 25256 ft 450 kts 272°
2026-05-06 15:25 56.85707 58.67452 25628 ft 452 kts 272°
2026-05-06 15:25 56.85796 58.61701 25940 ft 454 kts 272°
2026-05-06 15:25 56.85886 58.55987 26225 ft 456 kts 272°
2026-05-06 15:26 56.85977 58.50094 26523 ft 459 kts 272°
2026-05-06 15:26 56.86064 58.44259 26833 ft 460 kts 272°
2026-05-06 15:26 56.86148 58.38489 27180 ft 460 kts 272°
2026-05-06 15:26 56.86231 58.32651 27603 ft 459 kts 272°
2026-05-06 15:27 56.86310 58.26825 28056 ft 457 kts 272°
2026-05-06 15:27 56.86385 58.21035 28469 ft 455 kts 271°
2026-05-06 15:27 56.86456 58.15256 28896 ft 453 kts 271°
2026-05-06 15:27 56.86526 58.09504 29294 ft 452 kts 271°
2026-05-06 15:28 56.86592 58.03765 29647 ft 452 kts 271°
2026-05-06 15:28 56.86656 57.98037 30035 ft 450 kts 271°
2026-05-06 15:28 56.86718 57.92333 30424 ft 448 kts 271°
2026-05-06 15:28 56.86778 57.86628 30722 ft 449 kts 271°
2026-05-06 15:29 56.86834 57.80914 31073 ft 448 kts 271°
2026-05-06 15:29 56.86887 57.75231 31482 ft 446 kts 271°
2026-05-06 15:29 56.86937 57.69576 31856 ft 444 kts 271°
2026-05-06 15:29 56.86983 57.63930 32157 ft 444 kts 271°
2026-05-06 15:30 56.87028 57.58280 32446 ft 444 kts 271°
2026-05-06 15:30 56.87072 57.52642 32767 ft 443 kts 271°
2026-05-06 15:30 56.87112 57.47016 33087 ft 442 kts 271°
2026-05-06 15:30 56.87148 57.41476 33431 ft 440 kts 271°
2026-05-06 15:31 56.87183 57.35891 33751 ft 439 kts 271°
2026-05-06 15:31 56.87215 57.30316 34014 ft 439 kts 271°
2026-05-06 15:31 56.87245 57.24739 34240 ft 439 kts 271°
2026-05-06 15:32 56.87297 57.13580 34751 ft 438 kts 271°
2026-05-06 15:32 56.87319 57.08020 35055 ft 437 kts 270°
2026-05-06 15:32 56.87339 57.02464 35279 ft 438 kts 270°
2026-05-06 15:32 56.87356 56.96896 35480 ft 438 kts 270°
2026-05-06 15:33 56.87372 56.91323 35720 ft 438 kts 270°
2026-05-06 15:33 56.87384 56.85749 35787 ft 441 kts 270°
2026-05-06 15:33 56.87401 56.74505 35791 ft 442 kts 270°
2026-05-06 15:34 56.87408 56.63335 35779 ft 437 kts 270°
2026-05-06 15:34 56.87408 56.52336 35789 ft 434 kts 270°
2026-05-06 15:35 56.87409 56.41309 35787 ft 433 kts 271°
2026-05-06 15:35 56.87509 56.30303 35785 ft 433 kts 271°
2026-05-06 15:36 56.87615 56.19290 35790 ft 434 kts 271°
2026-05-06 15:36 56.87697 56.08239 35778 ft 435 kts 271°
2026-05-06 15:37 56.87762 55.97166 35780 ft 436 kts 269°
2026-05-06 15:37 56.86795 55.86222 35783 ft 439 kts 252°
2026-05-06 15:38 56.84474 55.75881 35780 ft 441 kts 248°
2026-05-06 15:38 56.82044 55.65579 35790 ft 442 kts 248°
2026-05-06 15:39 56.79631 55.55257 35787 ft 443 kts 248°
2026-05-06 15:39 56.77229 55.44926 35789 ft 442 kts 248°
2026-05-06 15:40 56.74824 55.34607 35795 ft 442 kts 248°
2026-05-06 15:40 56.72411 55.24296 35795 ft 442 kts 248°
2026-05-06 15:41 56.69990 55.13996 35796 ft 442 kts 248°
2026-05-06 15:41 56.67579 55.03802 35795 ft 442 kts 248°
2026-05-06 15:42 56.65145 54.93560 35802 ft 441 kts 248°
2026-05-06 15:42 56.62706 54.83345 35804 ft 441 kts 248°
2026-05-06 15:43 56.60260 54.73146 35804 ft 440 kts 248°
2026-05-06 15:43 56.57809 54.62969 35806 ft 440 kts 247°
2026-05-06 15:44 56.55349 54.52802 35812 ft 440 kts 247°
2026-05-06 15:44 56.52882 54.42658 35814 ft 440 kts 247°
2026-05-06 15:45 56.50407 54.32519 35816 ft 440 kts 247°
2026-05-06 15:45 56.47918 54.22390 35819 ft 440 kts 247°
2026-05-06 15:46 56.45413 54.12258 35824 ft 441 kts 247°
2026-05-06 15:46 56.42900 54.02122 35824 ft 442 kts 247°
2026-05-06 15:47 56.40377 53.91985 35830 ft 443 kts 247°
2026-05-06 15:47 56.37866 53.81882 35829 ft 443 kts 247°
2026-05-06 15:48 56.35338 53.71732 35833 ft 444 kts 246°
2026-05-06 15:48 56.33220 53.63280 35834 ft 444 kts 246°
2026-05-06 15:49 56.30633 53.53164 35835 ft 444 kts 246°
2026-05-06 15:49 56.28014 53.43088 35834 ft 444 kts 246°
2026-05-06 15:50 56.25397 53.33043 35846 ft 443 kts 246°
2026-05-06 15:50 56.22773 53.23007 35847 ft 443 kts 246°
2026-05-06 15:51 56.20153 53.13003 35842 ft 442 kts 246°
2026-05-06 15:51 56.17533 53.03046 35844 ft 441 kts 246°
2026-05-06 15:52 56.14907 52.93117 35853 ft 440 kts 246°
2026-05-06 15:52 56.12297 52.83290 35850 ft 439 kts 246°
2026-05-06 15:53 56.09670 52.73436 35845 ft 438 kts 246°
2026-05-06 15:53 56.07034 52.63595 35848 ft 438 kts 245°
2026-05-06 15:54 56.04404 52.53761 35852 ft 438 kts 246°
2026-05-06 15:54 56.01779 52.43919 35846 ft 439 kts 246°
2026-05-06 15:55 55.99142 52.34067 35850 ft 440 kts 246°
2026-05-06 15:55 55.96489 52.24206 35858 ft 441 kts 245°
2026-05-06 15:56 55.93820 52.14335 35858 ft 442 kts 245°
2026-05-06 15:56 55.91136 52.04447 35853 ft 443 kts 245°
2026-05-06 15:57 55.88439 51.94560 35854 ft 444 kts 245°
2026-05-06 15:57 55.85749 51.84738 35854 ft 444 kts 245°
2026-05-06 15:58 55.83026 51.74835 35854 ft 445 kts 245°
2026-05-06 15:58 55.80297 51.64954 35851 ft 445 kts 245°
2026-05-06 15:59 55.77559 51.55082 35851 ft 445 kts 245°
2026-05-06 15:59 55.74814 51.45218 35856 ft 445 kts 245°
2026-05-06 16:00 55.72164 51.35295 35844 ft 445 kts 248°
2026-05-06 16:00 55.69795 51.25176 35850 ft 444 kts 249°
2026-05-06 16:01 55.67454 51.15045 35845 ft 444 kts 249°
2026-05-06 16:01 55.65094 51.05000 35852 ft 444 kts 248°
2026-05-06 16:02 55.62692 50.94903 35851 ft 445 kts 248°
2026-05-06 16:02 55.60279 50.84819 35851 ft 445 kts 248°
2026-05-06 16:03 55.57857 50.74738 35844 ft 445 kts 248°
2026-05-06 16:03 55.55424 50.64661 35843 ft 446 kts 248°
2026-05-06 16:04 55.52983 50.54600 35845 ft 445 kts 248°
2026-05-06 16:04 55.50536 50.44559 35842 ft 446 kts 248°
2026-05-06 16:05 55.48081 50.34524 35844 ft 446 kts 248°
2026-05-06 16:05 55.45630 50.24555 35840 ft 446 kts 248°
2026-05-06 16:06 55.43156 50.14529 35835 ft 446 kts 248°
2026-05-06 16:06 55.40676 50.04521 35832 ft 446 kts 248°
2026-05-06 16:07 55.39194 49.94020 35838 ft 443 kts 265°
2026-05-06 16:07 55.39369 49.83226 35842 ft 442 kts 276°
2026-05-06 16:08 55.39970 49.72449 35834 ft 442 kts 276°
2026-05-06 16:08 55.40525 49.61676 35834 ft 442 kts 275°
2026-05-06 16:09 55.41037 49.50893 35834 ft 442 kts 275°
2026-05-06 16:09 55.41536 49.40108 35833 ft 442 kts 275°
2026-05-06 16:10 55.42026 49.29308 35835 ft 442 kts 275°
2026-05-06 16:10 55.42505 49.18506 35828 ft 442 kts 275°
2026-05-06 16:11 55.42978 49.07705 35831 ft 442 kts 275°
2026-05-06 16:11 55.43443 48.96910 35830 ft 442 kts 275°
2026-05-06 16:12 55.43896 48.86121 35836 ft 442 kts 275°
2026-05-06 16:12 55.44337 48.75390 35835 ft 442 kts 275°
2026-05-06 16:13 55.44773 48.64597 35834 ft 442 kts 275°
2026-05-06 16:13 55.45274 48.53809 35828 ft 441 kts 279°
2026-05-06 16:14 55.46896 48.43423 35833 ft 439 kts 288°
2026-05-06 16:14 55.48737 48.33170 35836 ft 438 kts 288°
2026-05-06 16:15 55.50541 48.22907 35832 ft 437 kts 287°
2026-05-06 16:15 55.52309 48.12650 35834 ft 436 kts 287°
2026-05-06 16:16 55.54056 48.02410 35831 ft 435 kts 287°
2026-05-06 16:16 55.55792 47.92171 35836 ft 434 kts 287°
2026-05-06 16:17 55.57517 47.81950 35832 ft 434 kts 287°
2026-05-06 16:17 55.59218 47.71805 35833 ft 433 kts 287°